Weather Roundup
Issued by NWS Springfield, MO

Home | Current Version | Previous Version | Text Only | Print | Product List | Glossary On
Versions: 1 2 3 4 5 6 7 8 9 10 11 12 13 14 15 16 17 18 19 20 21 22 23 24 25 26 27 28 29 30 31 32 33 34 35 36 37 38 39 40 41 42 43 44 45 46 47 48 49 50
000
NZUS99 KSGF 310807
HRRSGF

HOURLY WEATHER
NATIONAL WEATHER SERVICE SPRINGFIELD MO
300 AM CDT TUE MAY 31 2016

......SGF CWA......

CITY           SKY/WX    TMP DP  RH WIND       PRES   REMARKS
SPRINGFIELD    CLOUDY    65  61  87 SE8       29.94F
JOPLIN         CLEAR     65  63  93 SE6       29.92F
WEST PLAINS    CLOUDY    64  61  90 N3        29.99S
ROLLA          CLOUDY    64  61  90 CALM      29.97S

......SURROUNDING SGF CWA......

CITY           SKY/WX    TMP DP  RH WIND       PRES   REMARKS
CHANUTE        CLOUDY    63  61  93 S3        29.92F
PARSONS        CLOUDY    61  60  97 CALM      29.93F
COFFEYVILLE    PTCLDY    61  60  97 NE5       29.92F
EMPORIA        CLOUDY    61  59  93 CALM      29.94F
GROVE OK       MOCLDY    64  64 100 CALM      29.93S
ROGERS AR        N/A     64  63  96 SE6       29.95F
SILOAM SPRINGS PTCLDY    63  55  77 E3        29.94S
HARRISON AR    CLOUDY    64  62  93 SE8       29.96F
NEAR YELLVILLE CLOUDY   N/A N/A N/A CALM      29.92F

......KANSAS AND MISSOURI......

CITY           SKY/WX    TMP DP  RH WIND       PRES   REMARKS
KANSAS CTY INT CLOUDY    60  57  89 S8        29.94F
DOWNTOWN KC    CLEAR     65  59  81 SW5       29.93F
COLUMBIA       LGT RAIN  64  62  93 SE3       29.99R
SEDALIA        CLOUDY    65  62  90 CALM      29.97F
ST JOSEPH      CLOUDY    63  60  90 S7        29.94S
ST LOUIS       CLOUDY    71  61  70 CALM      29.98S
SPIRIT OF STL  CLOUDY    66  66 100 CALM      29.97S
KIRKSVILLE     CLOUDY    63  61  93 S5        29.98S
WICHITA        CLOUDY    65  62  90 SE6       29.92F
TOPEKA         CLOUDY    65  61  87 CALM      29.94S
OLATHE         CLEAR     61  59  93 CALM      29.95S

......TENNESSEE......

CITY           SKY/WX    TMP DP  RH WIND       PRES   REMARKS
MEMPHIS        CLOUDY    72  65  78 N5        29.94F
NASHVILLE      PTCLDY    66  60  81 CALM      29.95F

......ARKANSAS.......

CITY           SKY/WX    TMP DP  RH WIND       PRES   REMARKS
FAYETTEVILLE   FOG       60  60 100 CALM      29.94S VSB 1/4
FT SMITH       PTCLDY    68  65  90 E6        29.92S
LITTLE ROCK    PTCLDY    66  64  93 N3        29.92F

......OKLAHOMA.......

CITY           SKY/WX    TMP DP  RH WIND       PRES   REMARKS
TULSA          MOCLDY    65  65 100 SE3       29.90S
PONCA CITY     CLOUDY    66  63  90 SE7       29.91R
MCALESTER      CLOUDY    68  66  93 CALM      29.91F
OKLAHOMA CITY  MOCLDY    67  65  93 S6        29.90S

......IOWA............

CITY           SKY/WX    TMP DP  RH WIND       PRES   REMARKS
DES MOINES     MOCLDY    69  59  70 SE7       29.92S
QUAD CITIES    CLOUDY    69  63  81 W3        29.94F

......ILLINOIS........

CITY           SKY/WX    TMP DP  RH WIND       PRES   REMARKS
QUINCY         CLOUDY    68  62  81 CALM      29.96F
CHICAGO        CLOUDY    65  55  70 CALM      29.99S




USA.gov is the U.S. government's official web portal to all federal, state and local government web resources and services.